Погода в Тугулуке

Россия / Ставропольский край     45°20′09″N   42°14′32″E
темп.,
°C
ветер,
м/с
пор.,
м/с
влажн.,
%
обл.,
%
осадки,
мм/ч
давл.,
гПа
погр.,
м
10 апреля, сб
сб1000:00+2зсз4697100 1.3 1021425
03:00+2зсз5797100 1.6 1020351
06:00+2з4797100 0.1 1020387
09:00+3зсз5796100 0.2 1020425
12:00+4зсз5693100 0.0 1020450
15:00+5зсз5689100 0.1 1020569
18:00+5сз4693100 0.0 1020500
21:00+4зсз2495100 0.1 1021252
11 апреля, вс
вс1100:00+5з2395100 0.0 1020173
03:00+5зсз1295100 0.0 1020123
06:00+5вюв0094100 0.0 102063
09:00+6в1288100 0.0 1019255
12:00+11в3370100 0.0 1018977
15:00+12всв2368100 0.0 1018845
18:00+10ссз3688100 0.0 1018203
21:00+9сз2393100 0.0 101762
12 апреля, пн
пн1200:00+8з2295100 0.0 101633
03:00+8зсз2394100 0.0 101759
06:00+8з61196100 0.0 1018366
09:00+8зсз61191100 0.0 1020551
12:00+8зсз71187100 0.0 1020588
15:00+8зсз5888100 0.0 1021478
18:00+8з4689100 0.0 1022320
21:00+8з3693100 0.0 1022235
13 апреля, вт
вт1300:00+8зсз2595100 0.1 1021204
03:00+8зсз2496100 0.2 1021161
06:00+8з2397100 0.1 1021146
09:00+9з3492100 0.1 1021331
12:00+9з4594100 0.1 1021471
15:00+8з4694100 0.6 1022386
18:00+8зсз5895100 0.9 1023382
21:00+7зсз4796100 1.3 1023335
14 апреля, ср
ср1400:00+7зсз3698100 0.8 1022302
03:00+7сз4798100 0.8 1021325
06:00+7зсз4798100 0.1 1020255
09:00+8сз3496100 0.1 1019304
12:00+11зсз3382100 0.1 1018770
15:00+12зюз4373100 0.2 1018699
18:00+9з4888100 0.1 1018286
21:00+8зюз35929 0.1 101895